Location: Spring Creek
(38.2870°N, 100.2160°W)
Time: 02:14:06
(UTC+00:00)

Cosmos 2278 - Pass Details

Date: 08 May 2021
Orbit: 841 x 852 km, 71.1° (Epoch: 24 June)

Event Time Altitude Azimuth Distance (km) Brightness Sun altitude
Exits shadow 10:16:04 12° 194° (SSW) 2,302 5.5 -14.5°
Maximum altitude 10:21:17 76° 110° (ESE) 881 3.9 -13.7°
Drops below altitude 10° 10:26:59 10° 26° (NNE) 2,484 7.1 -12.7°
Sets 10:29:26 0° 25° (NNE) 3,423 7.9 -12.3°
